Capitol Logistics 559


VIDP
Indira Gandhi International Airport
New Delhi, IN
WSSS
Changi International Airport
Singapore, SG

Activity Log

Date Flight Route Aircraft Duration
11/11/2019 CPX759 ITBAN L759 PUT VPL W531 VIH A464 ARAMA B744 4h 57m

Route Details

Aircraft Information
Primary: Boeing 747-400BCF
Backup: Boeing 777-200LRF
Route Data
Distance: 2241nm
Sched. Duration: 5h 50m
Avg. Duration: 4h 57m (-93m)
Times Flown: 1
Recm'd Route: ITBAN L759 PUT VPL W531 VIH A464 ARAMA
Planned Altitude: 33,000ft
Origin Wx: VIDP 060730Z 12005KT 4500 HZ FEW035 SCT100 34/20 Q1003 BECMG 5000 HZ
Dest. Wx: WSSS 060800Z 17005KT 9999 -RA FEW018 BKN170 29/24 Q1009 NOSIG
Notes:

Financial History
Total Freight: 126,008lbs
Average Load: 126,008lbs/flt
Fuel Used: 105,118lbs
Avg. Fuel Used: 105,118lbs/flt
Fuel Expense: $84,094
Avg. Fuel Expense: $84,094
Avg. Fuel Cost: $0.80/lbs
Total Gross Income: $480,090
Pilot Pay: $239
Total Expenses: $51,902
Total Revenue: $342,812
Average Revenue: $480,090.47